| time (UTC) | temp F | wind direction | speed knots | gust knots | rain 1hr in | rain 24hr in | rain mn in | humidity % | barometer mb |
| 20260506111509 | 69 | 360 | 0.9 | 11.3 | 0.00 | 0.00 | 0.00 | 45 | 1001.8 |
| 20260506110047 | 69 | 67 | 2.6 | 10.4 | 0.00 | 0.00 | 0.00 | 40 | 1001.8 |
| 20260506104617 | 69 | 236 | 0.0 | 7.8 | 0.00 | 0.00 | 0.00 | 40 | 1001.9 |
| 20260506103024 | 69 | 109 | 0.9 | 6.1 | 0.00 | 0.00 | 0.00 | 43 | 1002.1 |
| 20260506101510 | 67 | 323 | 0.9 | 2.6 | 0.00 | 0.00 | 0.00 | 42 | 1002.4 |
| 20260506100115 | 66 | 299 | 0.9 | 6.1 | 0.00 | 0.00 | 0.00 | 50 | 1002.6 |
| 20260506094531 | 65 | 266 | 2.6 | 7.0 | 0.00 | 0.00 | 0.00 | 51 | 1002.8 |
| 20260506093105 | 61 | 267 | 0.0 | 1.7 | 0.00 | 0.00 | 0.00 | 58 | 1003.3 |
| 20260506091502 | 60 | 257 | 0.0 | 1.7 | 0.00 | 0.00 | 0.00 | 59 | 1003.5 |
| 20260506090029 | 59 | 305 | 0.9 | 1.7 | 0.00 | 0.00 | 0.00 | 62 | 1003.3 |
| 20260506084603 | 59 | 238 | 0.0 | 2.6 | 0.00 | 0.00 | 0.00 | 64 | 1003.5 |
| 20260506083001 | 58 | 215 | 0.0 | 1.7 | 0.00 | 0.00 | 0.00 | 62 | 1003.6 |
| 20260506081537 | 57 | 213 | 0.0 | 2.6 | 0.00 | 0.00 | 0.00 | 61 | 1003.7 |
| 20260506080111 | 56 | 205 | 0.0 | 0.0 | 0.00 | 0.00 | 0.00 | 69 | 1003.9 |
| 20260506073027 | 54 | 307 | 0.0 | 2.6 | 0.00 | 0.00 | 0.00 | 71 | 1004.4 |
| 20260506071614 | 53 | 293 | 0.9 | 2.6 | 0.00 | 0.00 | 0.00 | 69 | 1004.6 |
| 20260506061533 | 47 | 315 | 0.9 | 2.6 | 0.00 | 0.00 | 0.00 | 82 | 1005.4 |
| 20260506060121 | 45 | 302 | 0.0 | 0.0 | 0.00 | 0.00 | 0.00 | 85 | 1005.5 |
| 20260506050111 | 40 | 239 | 0.0 | 0.0 | 0.00 | 0.00 | 0.00 | 90 | 1006.2 |
| 20260506044535 | 40 | 221 | 0.0 | 0.9 | 0.00 | 0.00 | 0.00 | 91 | 1006.2 |
| 20260506043109 | 38 | 55 | 0.0 | 0.9 | 0.00 | 0.00 | 0.00 | 93 | 1006.5 |
| 20260506041516 | 37 | 266 | 0.0 | 0.9 | 0.00 | 0.00 | 0.00 | 92 | 1006.6 |
| 20260506040046 | 38 | 256 | 0.0 | 0.0 | 0.00 | 0.00 | 0.00 | 90 | 1006.2 |
| 20260506034503 | 40 | 86 | 0.0 | 0.9 | 0.00 | 0.00 | 0.00 | 90 | 1006.0 |
| 20260506033101 | 38 | 47 | 0.0 | 0.0 | 0.00 | 0.00 | 0.00 | 92 | 1006.1 |
| 20260506031506 | 38 | 47 | 0.0 | 0.9 | 0.00 | 0.00 | 0.00 | 93 | 1006.5 |
| 20260506030059 | 37 | 272 | 0.0 | 0.0 | 0.00 | 0.00 | 0.00 | 92 | 1007.0 |
| 20260506024515 | 40 | 172 | 0.0 | 0.0 | 0.00 | 0.00 | 0.00 | 91 | 1006.8 |
| 20260506023105 | 38 | 207 | 0.0 | 0.0 | 0.00 | 0.00 | 0.00 | 91 | 1006.9 |
| 20260506021522 | 39 | 206 | 0.0 | 0.0 | 0.00 | 0.00 | 0.00 | 90 | 1006.8 |
| 20260506020114 | 39 | 202 | 0.0 | 0.0 | 0.00 | 0.00 | 0.00 | 89 | 1007.0 |
| 20260506014534 | 40 | 202 | 0.0 | 0.0 | 0.00 | 0.00 | 0.00 | 88 | 1006.7 |
| 20260506013116 | 40 | 202 | 0.0 | 0.0 | 0.00 | 0.00 | 0.00 | 90 | 1006.6 |
| 20260506011544 | 40 | 202 | 0.0 | 0.0 | 0.00 | 0.00 | 0.00 | 87 | 1006.8 |
| 20260506010121 | 40 | 202 | 0.0 | 0.9 | 0.00 | 0.00 | 0.00 | 88 | 1006.4 |
| 20260506004540 | 42 | 71 | 0.0 | 0.9 | 0.00 | 0.00 | 0.00 | 86 | 1006.3 |
| 20260506003123 | 40 | 208 | 0.0 | 1.7 | 0.00 | 0.00 | 0.00 | 85 | 1006.3 |
| 20260506001541 | 43 | 146 | 0.0 | 0.0 | 0.00 | 0.00 | 0.00 | 84 | 1006.3 |
| 20260506000130 | 41 | 269 | 0.0 | 1.7 | 0.00 | 0.00 | 0.00 | 84 | 1006.3 |
| 20260505234542 | 44 | 104 | 0.0 | 0.9 | 0.00 | 0.00 | 0.00 | 82 | 1006.2 |
| 20260505233132 | 44 | 163 | 0.0 | 0.0 | 0.00 | 0.00 | 0.00 | 80 | 1006.2 |
| 20260505231552 | 45 | 65 | 0.0 | 0.0 | 0.00 | 0.00 | 0.00 | 80 | 1006.2 |
| 20260505230136 | 44 | 209 | 0.0 | 0.0 | 0.00 | 0.00 | 0.00 | 81 | 1006.2 |
| 20260505224544 | 47 | 176 | 0.0 | 0.0 | 0.00 | 0.00 | 0.00 | 76 | 1006.0 |
| 20260505223136 | 47 | 178 | 0.0 | 0.0 | 0.00 | 0.00 | 0.00 | 75 | 1006.0 |
| 20260505221600 | 48 | 67 | 0.0 | 1.7 | 0.00 | 0.00 | 0.00 | 74 | 1005.8 |
| 20260505220002 | 47 | 247 | 0.0 | 0.9 | 0.00 | 0.00 | 0.00 | 74 | 1005.7 |
| 20260505214558 | 48 | 198 | 0.0 | 0.9 | 0.00 | 0.00 | 0.00 | 72 | 1005.7 |
| 20260505213009 | 48 | 233 | 0.0 | 0.0 | 0.00 | 0.00 | 0.00 | 74 | 1005.8 |
| 20260505211559 | 49 | 234 | 0.0 | 0.9 | 0.00 | 0.00 | 0.00 | 71 | 1005.7 |
| 20260505210014 | 50 | 32 | 0.0 | 1.7 | 0.00 | 0.00 | 0.00 | 70 | 1005.5 |
| 20260505204612 | 50 | 205 | 0.0 | 0.0 | 0.00 | 0.00 | 0.00 | 68 | 1005.5 |
| 20260505203022 | 51 | 313 | 0.0 | 0.0 | 0.00 | 0.00 | 0.00 | 66 | 1005.2 |
| 20260505201606 | 52 | 344 | 0.0 | 0.9 | 0.00 | 0.00 | 0.00 | 64 | 1005.0 |
| 20260505200018 | 55 | 290 | 2.6 | 5.2 | 0.00 | 0.00 | 0.00 | 58 | 1004.8 |
| 20260505194608 | 58 | 192 | 0.9 | 11.3 | 0.00 | 0.00 | 0.00 | 52 | 1004.6 |
| 20260505193031 | 59 | 77 | 0.9 | 4.3 | 0.00 | 0.00 | 0.00 | 51 | 1004.3 |
| 20260505191611 | 59 | 16 | 3.5 | 11.3 | 0.00 | 0.00 | 0.00 | 50 | 1004.3 |
| 20260505190020 | 59 | 119 | 0.0 | 7.0 | 0.00 | 0.00 | 0.00 | 50 | 1004.0 |
| 20260505184608 | 61 | 80 | 0.9 | 7.0 | 0.00 | 0.00 | 0.00 | 47 | 1003.9 |
| 20260505183021 | 61 | 59 | 3.5 | 12.2 | 0.00 | 0.00 | 0.00 | 47 | 1003.7 |
| 20260505181617 | 61 | 86 | 1.7 | 13.9 | 0.00 | 0.00 | 0.00 | 47 | 1003.5 |
| 20260505180019 | 62 | 274 | 1.7 | 13.0 | 0.00 | 0.00 | 0.00 | 46 | 1003.4 |
| 20260505174610 | 62 | 52 | 3.5 | 13.0 | 0.00 | 0.00 | 0.00 | 46 | 1003.3 |
| 20260505173029 | 63 | 349 | 4.3 | 12.2 | 0.00 | 0.00 | 0.00 | 44 | 1003.3 |
| 20260505171612 | 63 | 70 | 0.9 | 12.2 | 0.00 | 0.00 | 0.00 | 46 | 1003.3 |
| 20260505170032 | 64 | 333 | 3.5 | 11.3 | 0.00 | 0.00 | 0.00 | 44 | 1003.2 |
| 20260505164618 | 64 | 58 | 2.6 | 14.8 | 0.00 | 0.00 | 0.00 | 45 | 1003.2 |
| 20260505163036 | 64 | 82 | 6.1 | 17.4 | 0.00 | 0.00 | 0.00 | 45 | 1003.2 |
| 20260505161506 | 64 | 340 | 4.3 | 13.9 | 0.00 | 0.00 | 0.00 | 45 | 1003.5 |
| 20260505153055 | 65 | 172 | 2.6 | 13.0 | 0.00 | 0.00 | 0.00 | 44 | 1003.4 |
| 20260505151634 | 65 | 101 | 3.5 | 15.6 | 0.00 | 0.00 | 0.00 | 43 | 1003.4 |
| 20260505124606 | 68 | 331 | 5.2 | 25.2 | 0.00 | 0.00 | 0.00 | 39 | 1003.1 |
| 20260505123125 | 68 | 63 | 6.1 | 18.2 | 0.00 | 0.00 | 0.00 | 39 | 1003.1 |
| 20260505121531 | 66 | 96 | 4.3 | 13.9 | 0.00 | 0.00 | 0.00 | 40 | 1003.0 |
| 20260505120116 | 66 | 83 | 0.9 | 13.0 | 0.00 | 0.00 | 0.00 | 42 | 1003.3 |
| 20260505114517 | 66 | 227 | 2.6 | 12.2 | 0.00 | 0.00 | 0.00 | 40 | 1003.4 |
| 20260505113114 | 67 | 88 | 1.7 | 17.4 | 0.00 | 0.00 | 0.00 | 40 | 1003.3 |